This is the latest recevied weather packets stored in our database for station/object EA7RX-4. If no packets are shown the sender has not sent any weather packets the latest 1 day(s).
| Time | Temp. | Humidity | Pressure | Rain* | Wind** | Luminosity | Snow |
|---|---|---|---|---|---|---|---|
| 1778010603 | 12.78° C | 44% | 1010.7 hPa | 0 mm | 1.79 m/s, 332° | 0 W/m² | - |
| 1778010003 | 12.78° C | 42% | 1010.6 hPa | 0 mm | 1.79 m/s, 332° | 0 W/m² | - |
| 1778009403 | 13.33° C | 40% | 1010.5 hPa | 0 mm | 1.34 m/s, 288° | 0 W/m² | - |
| 1778008803 | 13.33° C | 39% | 1010.3 hPa | 0 mm | 1.79 m/s, 261° | 1 W/m² | - |
| 1778008203 | 13.89° C | 38% | 1010.3 hPa | 0 mm | 1.79 m/s, 237° | 5 W/m² | - |
| 1778007603 | 14.44° C | 37% | 1010.2 hPa | 0 mm | 2.24 m/s, 245° | 12 W/m² | - |
| 1778007003 | 14.44° C | 36% | 1010 hPa | 0 mm | 3.13 m/s, 251° | 22 W/m² | - |
| 1778006403 | 15° C | 36% | 1010 hPa | 0 mm | 3.13 m/s, 261° | 36 W/m² | - |
| 1778005803 | 15° C | 35% | 1010 hPa | 0 mm | 3.13 m/s, 257° | 37 W/m² | - |
| 1778005203 | 15.56° C | 34% | 1010 hPa | 0 mm | 3.13 m/s, 275° | 49 W/m² | - |
| 1778004603 | 15° C | 33% | 1010 hPa | 0 mm | 3.13 m/s, 298° | 69 W/m² | - |
| 1778004003 | 15.56° C | 32% | 1009.7 hPa | 0 mm | 2.68 m/s, 256° | 88 W/m² | - |
| 1778003403 | 16.11° C | 30% | 1009.8 hPa | 0 mm | 3.58 m/s, 275° | 115 W/m² | - |
| 1778002803 | 16.11° C | 31% | 1009.5 hPa | 0 mm | 3.58 m/s, 263° | 143 W/m² | - |
| 1778002203 | 16.11° C | 30% | 1009.4 hPa | 0 mm | 4.02 m/s, 280° | 176 W/m² | - |
| 1778001603 | 16.11° C | 30% | 1009.6 hPa | 0 mm | 4.02 m/s, 267° | 214 W/m² | - |
| 1778001003 | 16.11° C | 29% | 1009.5 hPa | 0 mm | 5.36 m/s, 256° | 247 W/m² | - |
| 1778000403 | 16.11° C | 30% | 1009.6 hPa | 0 mm | 4.47 m/s, 249° | 286 W/m² | - |
| 1777999803 | 15.56° C | 29% | 1009.4 hPa | 0 mm | 5.81 m/s, 265° | 327 W/m² | - |
| 1777999203 | 16.11° C | 30% | 1009.5 hPa | 0 mm | 4.92 m/s, 267° | 364 W/m² | - |
| 1777998603 | 16.11° C | 31% | 1009.6 hPa | 0 mm | 4.92 m/s, 250° | 404 W/m² | - |
| 1777998003 | 16.11° C | 31% | 1009.6 hPa | 0 mm | 4.92 m/s, 257° | 452 W/m² | - |
| 1777997403 | 16.67° C | 31% | 1009.5 hPa | 0 mm | 5.81 m/s, 252° | 496 W/m² | - |
| 1777996803 | 16.11° C | 32% | 1009.5 hPa | 0 mm | 5.36 m/s, 260° | 239 W/m² | - |
| 1777996203 | 16.67° C | 32% | 1009.3 hPa | 0 mm | 4.02 m/s, 276° | 160 W/m² | - |
* Rain latest hour (hover to see other rain measurements)
** Current wind speed in m/s (hover to see current wind gust speed)